JAL8118 RJOO-RJTT

Flight info

Callsign JAL8118
Flight time 0h 59m
Altitude 27000
Route ASUKA SHTLE Y71 XAC
Aircraft A359/H-SDE2E3GHIJ3J4J5LM1ORWXY/LB1D1

Departure

Time 2026-05-06 11:50
Airport Osaka Itami International Airport (RJOO)

Arrival

Time 2026-05-06 12:49
Airport Tokyo Haneda International Airport (RJTT)
Time Latitude Longitude Altitude Speed Heading
2026-05-06 11:36 34.78745 135.44274 56 ft 0 kts 60°
2026-05-06 11:38 34.78738 135.44259 49 ft 3 kts 60°
2026-05-06 11:38 34.78727 135.44237 49 ft 3 kts 60°
2026-05-06 11:38 34.78716 135.44216 49 ft 3 kts 43°
2026-05-06 11:38 34.78700 135.44203 49 ft 3 kts
2026-05-06 11:39 34.78681 135.44208 49 ft 3 kts 330°
2026-05-06 11:39 34.78671 135.44216 50 ft 0 kts 321°
2026-05-06 11:43 34.78706 135.44179 48 ft 11 kts 317°
2026-05-06 11:43 34.78768 135.44103 48 ft 14 kts 313°
2026-05-06 11:44 34.78930 135.43902 50 ft 19 kts 315°
2026-05-06 11:44 34.79028 135.43783 52 ft 21 kts 315°
2026-05-06 11:44 34.79141 135.43649 50 ft 24 kts 315°
2026-05-06 11:44 34.79256 135.43490 49 ft 26 kts 295°
2026-05-06 11:45 34.79324 135.43304 55 ft 24 kts 309°
2026-05-06 11:45 34.79380 135.43241 48 ft 0 kts 308°
2026-05-06 11:45 34.79380 135.43239 48 ft 1 kts 300°
2026-05-06 11:45 34.79385 135.43221 51 ft 5 kts 285°
2026-05-06 11:46 34.79382 135.43183 52 ft 0 kts 252°
2026-05-06 11:47 34.79382 135.43182 52 ft 1 kts 251°
2026-05-06 11:47 34.79372 135.43158 49 ft 6 kts 242°
2026-05-06 11:48 34.79326 135.43083 48 ft 14 kts 229°
2026-05-06 11:48 34.79241 135.42975 50 ft 21 kts 226°
2026-05-06 11:48 34.79104 135.42924 52 ft 22 kts 162°
2026-05-06 11:48 34.79036 135.42986 51 ft 0 kts 136°
2026-05-06 11:49 34.79035 135.42986 51 ft 2 kts 136°
2026-05-06 11:49 34.78823 135.43241 51 ft 83 kts 135°
2026-05-06 11:49 34.78242 135.43945 52 ft 151 kts 135°
2026-05-06 11:50 34.77395 135.44959 419 ft 181 kts 133°
2026-05-06 11:50 34.76395 135.45872 1363 ft 180 kts 146°
2026-05-06 11:50 34.75644 135.47166 1880 ft 205 kts 104°
2026-05-06 11:50 34.75803 135.48982 2296 ft 235 kts 71°
2026-05-06 11:51 34.76371 135.50949 2894 ft 254 kts 75°
2026-05-06 11:51 34.76756 135.53076 3750 ft 261 kts 83°
2026-05-06 11:51 34.76965 135.55292 4567 ft 269 kts 88°
2026-05-06 11:51 34.77067 135.57562 5356 ft 277 kts 90°
2026-05-06 11:52 34.77112 135.59925 6283 ft 282 kts 91°
2026-05-06 11:52 34.77126 135.62326 7186 ft 286 kts 92°
2026-05-06 11:52 34.77123 135.64751 8219 ft 287 kts 92°
2026-05-06 11:52 34.77112 135.67181 9290 ft 287 kts 93°
2026-05-06 11:53 34.77095 135.69613 10349 ft 288 kts 93°
2026-05-06 11:53 34.77074 135.72042 11355 ft 287 kts 92°
2026-05-06 11:53 34.77052 135.74468 12376 ft 288 kts 92°
2026-05-06 11:53 34.77028 135.76970 12947 ft 307 kts 92°
2026-05-06 11:54 34.76999 135.79629 13302 ft 330 kts 92°
2026-05-06 11:54 34.76969 135.82520 13672 ft 353 kts 92°
2026-05-06 11:54 34.76937 135.85583 14061 ft 372 kts 92°
2026-05-06 11:54 34.76904 135.88774 14619 ft 382 kts 92°
2026-05-06 11:55 34.76869 135.92041 15215 ft 392 kts 92°
2026-05-06 11:55 34.76831 135.95404 15774 ft 402 kts 92°
2026-05-06 11:55 34.76792 135.98828 16469 ft 408 kts 92°
2026-05-06 11:55 34.76764 136.02223 17130 ft 415 kts 91°
2026-05-06 11:56 34.76869 136.05788 17775 ft 423 kts 88°
2026-05-06 11:56 34.77083 136.09345 18423 ft 431 kts 87°
2026-05-06 11:56 34.77359 136.13007 18935 ft 439 kts 86°
2026-05-06 11:56 34.77656 136.16714 19416 ft 448 kts 86°
2026-05-06 11:57 34.77958 136.20523 19934 ft 456 kts 86°
2026-05-06 11:57 34.78255 136.24388 20448 ft 465 kts 86°
2026-05-06 11:57 34.78547 136.28318 20957 ft 473 kts 87°
2026-05-06 11:57 34.78837 136.32338 21480 ft 481 kts 87°
2026-05-06 11:58 34.79123 136.36398 22018 ft 489 kts 88°
2026-05-06 11:58 34.79410 136.40562 22448 ft 499 kts 88°
2026-05-06 11:58 34.79701 136.44774 22944 ft 506 kts 88°
2026-05-06 11:58 34.79999 136.49075 23459 ft 514 kts 88°
2026-05-06 11:59 34.80296 136.53379 23936 ft 522 kts 88°
2026-05-06 11:59 34.80600 136.57796 24475 ft 525 kts 88°
2026-05-06 11:59 34.80905 136.62232 25097 ft 527 kts 88°
2026-05-06 11:59 34.81209 136.66683 25727 ft 529 kts 89°
2026-05-06 12:00 34.81513 136.71151 26327 ft 531 kts 89°
2026-05-06 12:00 34.81815 136.75644 26880 ft 535 kts 89°
2026-05-06 12:00 34.82113 136.80109 27178 ft 536 kts 89°
2026-05-06 12:00 34.82414 136.84652 27236 ft 535 kts 89°
2026-05-06 12:01 34.82713 136.89085 27212 ft 517 kts 90°
2026-05-06 12:01 34.82928 136.93364 27215 ft 496 kts 95°
2026-05-06 12:01 34.82739 136.97429 27218 ft 474 kts 102°
2026-05-06 12:01 34.82403 137.01354 27221 ft 458 kts 104°
2026-05-06 12:02 34.82021 137.05131 27225 ft 442 kts 105°
2026-05-06 12:02 34.81625 137.08728 27222 ft 427 kts 105°
2026-05-06 12:02 34.81224 137.12242 27222 ft 412 kts 106°
2026-05-06 12:02 34.80832 137.15638 27225 ft 398 kts 106°
2026-05-06 12:03 34.80457 137.18909 27224 ft 384 kts 107°
2026-05-06 12:03 34.80092 137.22092 27225 ft 377 kts 107°
2026-05-06 12:03 34.79726 137.25238 27209 ft 375 kts 108°
2026-05-06 12:03 34.79361 137.28370 27218 ft 373 kts 108°
2026-05-06 12:04 34.79000 137.31482 27226 ft 372 kts 108°
2026-05-06 12:04 34.78641 137.34595 27220 ft 371 kts 108°
2026-05-06 12:04 34.78289 137.37659 27220 ft 371 kts 107°
2026-05-06 12:04 34.77932 137.40771 27227 ft 372 kts 107°
2026-05-06 12:05 34.77573 137.43893 27227 ft 373 kts 107°
2026-05-06 12:05 34.77214 137.47018 27231 ft 374 kts 107°
2026-05-06 12:05 34.76859 137.50121 27229 ft 374 kts 107°
2026-05-06 12:05 34.76499 137.53258 27225 ft 374 kts 107°
2026-05-06 12:06 34.75753 137.59728 27230 ft 374 kts 107°
2026-05-06 12:06 34.75391 137.62860 27229 ft 374 kts 107°
2026-05-06 12:06 34.75027 137.65994 27232 ft 374 kts 107°
2026-05-06 12:07 34.74665 137.69125 27231 ft 375 kts 107°
2026-05-06 12:07 34.74342 137.72226 27235 ft 376 kts 105°
2026-05-06 12:07 34.74044 137.75386 27236 ft 376 kts 105°
2026-05-06 12:07 34.73758 137.78550 27238 ft 376 kts 105°
2026-05-06 12:08 34.73476 137.81668 27245 ft 376 kts 105°
2026-05-06 12:08 34.73186 137.84830 27239 ft 376 kts 105°
2026-05-06 12:08 34.72891 137.87986 27232 ft 376 kts 105°
2026-05-06 12:08 34.72591 137.91146 27238 ft 376 kts 105°
2026-05-06 12:09 34.72288 137.94304 27228 ft 376 kts 105°
2026-05-06 12:09 34.71983 137.97454 27233 ft 375 kts 105°
2026-05-06 12:09 34.71678 138.00602 27237 ft 375 kts 105°
2026-05-06 12:09 34.71494 138.03827 27241 ft 380 kts 99°
2026-05-06 12:10 34.71447 138.07043 27239 ft 381 kts 97°
2026-05-06 12:10 34.71438 138.10225 27240 ft 382 kts 97°
2026-05-06 12:10 34.71451 138.13409 27238 ft 382 kts 97°
2026-05-06 12:10 34.71471 138.16640 27238 ft 382 kts 96°
2026-05-06 12:11 34.71624 138.19877 27235 ft 388 kts 85°
2026-05-06 12:11 34.72323 138.23060 27234 ft 391 kts 73°
2026-05-06 12:11 34.73255 138.26223 27242 ft 392 kts 71°
2026-05-06 12:11 34.74215 138.29328 27243 ft 392 kts 71°
2026-05-06 12:12 34.75183 138.32429 27245 ft 393 kts 71°
2026-05-06 12:12 34.76152 138.35530 27246 ft 393 kts 71°
2026-05-06 12:12 34.77121 138.38635 27245 ft 392 kts 70°
2026-05-06 12:12 34.77826 138.41821 27246 ft 387 kts 88°
2026-05-06 12:13 34.77901 138.45044 27255 ft 379 kts 100°
2026-05-06 12:13 34.77747 138.48239 27250 ft 379 kts 102°
2026-05-06 12:13 34.77551 138.51394 27249 ft 379 kts 102°
2026-05-06 12:13 34.77343 138.54593 27229 ft 379 kts 102°
2026-05-06 12:14 34.77132 138.57782 27245 ft 377 kts 102°
2026-05-06 12:14 34.76921 138.60952 27251 ft 376 kts 102°
2026-05-06 12:14 34.76708 138.64119 27249 ft 376 kts 102°
2026-05-06 12:14 34.76492 138.67289 27253 ft 376 kts 102°
2026-05-06 12:15 34.76275 138.70465 27248 ft 378 kts 102°
2026-05-06 12:15 34.76057 138.73647 27247 ft 378 kts 102°
2026-05-06 12:15 34.75839 138.76835 27248 ft 378 kts 102°
2026-05-06 12:15 34.75619 138.80024 27248 ft 378 kts 102°
2026-05-06 12:16 34.75399 138.83211 27252 ft 378 kts 102°
2026-05-06 12:16 34.75179 138.86392 27249 ft 378 kts 102°
2026-05-06 12:16 34.74959 138.89537 27252 ft 380 kts 102°
2026-05-06 12:16 34.74735 138.92742 27254 ft 381 kts 102°
2026-05-06 12:17 34.74509 138.95954 27245 ft 381 kts 102°
2026-05-06 12:17 34.74282 138.99154 27244 ft 379 kts 102°
2026-05-06 12:17 34.74056 139.02347 27240 ft 379 kts 102°
2026-05-06 12:17 34.73830 139.05533 27238 ft 379 kts 102°
2026-05-06 12:18 34.73603 139.08723 27236 ft 378 kts 102°
2026-05-06 12:18 34.73375 139.11912 27231 ft 380 kts 102°
2026-05-06 12:18 34.73144 139.15116 27214 ft 381 kts 102°
2026-05-06 12:18 34.72913 139.18325 27203 ft 381 kts 102°
2026-05-06 12:19 34.72689 139.21458 27002 ft 374 kts 102°
2026-05-06 12:19 34.72461 139.24607 26614 ft 374 kts 102°
2026-05-06 12:19 34.72231 139.27754 26252 ft 373 kts 101°
2026-05-06 12:19 34.72003 139.30880 25959 ft 370 kts 101°
2026-05-06 12:20 34.71776 139.33982 25657 ft 367 kts 101°
2026-05-06 12:20 34.71567 139.37050 25454 ft 361 kts 99°
2026-05-06 12:20 34.71635 139.40096 25199 ft 363 kts 85°
2026-05-06 12:20 34.72235 139.43098 24662 ft 371 kts 69°
2026-05-06 12:21 34.73386 139.45934 24070 ft 379 kts 58°
2026-05-06 12:21 34.74731 139.48679 23449 ft 387 kts 57°
2026-05-06 12:21 34.76134 139.51498 22755 ft 394 kts 57°
2026-05-06 12:21 34.77550 139.54366 22098 ft 401 kts 57°
2026-05-06 12:22 34.78997 139.57312 21428 ft 406 kts 57°
2026-05-06 12:22 34.80451 139.60286 20792 ft 411 kts 58°
2026-05-06 12:22 34.81886 139.63228 20164 ft 415 kts 58°
2026-05-06 12:22 34.83359 139.66254 19557 ft 418 kts 58°
2026-05-06 12:23 34.84844 139.69307 18951 ft 420 kts 59°
2026-05-06 12:23 34.86333 139.72374 18333 ft 421 kts 59°
2026-05-06 12:23 34.87825 139.75451 17656 ft 422 kts 59°
2026-05-06 12:23 34.89317 139.78528 16995 ft 422 kts 59°
2026-05-06 12:24 34.90303 139.80565 16556 ft 422 kts 59°
2026-05-06 12:24 34.92371 139.84609 15748 ft 418 kts 52°
2026-05-06 12:24 34.93678 139.86298 15566 ft 408 kts 38°
2026-05-06 12:24 34.96044 139.88033 15343 ft 389 kts 18°
2026-05-06 12:25 34.98592 139.88702 15127 ft 368 kts 358°
2026-05-06 12:25 35.01794 139.88130 14866 ft 339 kts 334°
2026-05-06 12:25 35.03882 139.86991 14560 ft 330 kts 329°
2026-05-06 12:25 35.06031 139.86016 14024 ft 335 kts 338°
2026-05-06 12:26 35.08311 139.85239 13386 ft 339 kts 341°
2026-05-06 12:26 35.09850 139.84745 12963 ft 340 kts 341°
2026-05-06 12:26 35.12890 139.83780 12160 ft 341 kts 343°
2026-05-06 12:26 35.14412 139.83298 11758 ft 341 kts 343°
2026-05-06 12:27 35.16712 139.82571 11165 ft 342 kts 344°
2026-05-06 12:27 35.19013 139.81844 10587 ft 342 kts 344°
2026-05-06 12:27 35.21315 139.81117 10009 ft 341 kts 345°
2026-05-06 12:27 35.23613 139.80399 9387 ft 340 kts 344°
2026-05-06 12:28 35.25945 139.79965 8766 ft 340 kts 357°
2026-05-06 12:28 35.28221 139.80310 8250 ft 337 kts 17°
2026-05-06 12:28 35.30245 139.81625 8016 ft 323 kts 40°
2026-05-06 12:28 35.31631 139.83654 7989 ft 301 kts 63°
2026-05-06 12:29 35.32278 139.85954 7980 ft 278 kts 85°
2026-05-06 12:29 35.32405 139.88217 7978 ft 259 kts 89°
2026-05-06 12:29 35.32647 139.90336 7978 ft 243 kts 83°
2026-05-06 12:29 35.32713 139.92282 7968 ft 221 kts 106°
2026-05-06 12:30 35.32112 139.93911 7985 ft 206 kts 128°
2026-05-06 12:30 35.31270 139.95321 7977 ft 205 kts 131°
2026-05-06 12:30 35.30389 139.96702 7972 ft 206 kts 132°
2026-05-06 12:30 35.29503 139.98085 7973 ft 207 kts 132°
2026-05-06 12:31 35.28615 139.99472 7975 ft 207 kts 132°
2026-05-06 12:31 35.27725 140.00863 7976 ft 207 kts 132°
2026-05-06 12:31 35.26837 140.02253 7979 ft 208 kts 132°
2026-05-06 12:31 35.25947 140.03647 7981 ft 208 kts 132°
2026-05-06 12:32 35.25063 140.05030 7978 ft 208 kts 132°
2026-05-06 12:32 35.24185 140.06400 7974 ft 207 kts 132°
2026-05-06 12:32 35.23299 140.07789 7979 ft 207 kts 132°
2026-05-06 12:32 35.22364 140.09117 7970 ft 204 kts 144°
2026-05-06 12:33 35.21097 140.09743 7978 ft 195 kts 179°
2026-05-06 12:33 35.19751 140.09619 7986 ft 195 kts 191°
2026-05-06 12:33 35.18417 140.09317 7978 ft 195 kts 192°
2026-05-06 12:33 35.17084 140.08993 7981 ft 196 kts 192°
2026-05-06 12:34 35.15752 140.08668 7979 ft 195 kts 192°
2026-05-06 12:34 35.14423 140.08342 7978 ft 195 kts 192°
2026-05-06 12:34 35.13109 140.08019 7979 ft 195 kts 192°
2026-05-06 12:34 35.11780 140.07692 7980 ft 195 kts 192°
2026-05-06 12:35 35.10449 140.07364 7980 ft 195 kts 192°
2026-05-06 12:35 35.09121 140.07036 7983 ft 195 kts 192°
2026-05-06 12:35 35.07802 140.06651 7973 ft 195 kts 200°
2026-05-06 12:35 35.06765 140.05627 7986 ft 196 kts 236°
2026-05-06 12:36 35.06349 140.04034 7984 ft 198 kts 259°
2026-05-06 12:36 35.06205 140.02358 7979 ft 201 kts 262°
2026-05-06 12:36 35.06092 140.00653 7983 ft 202 kts 262°
2026-05-06 12:36 35.05984 139.98930 7783 ft 207 kts 262°
2026-05-06 12:37 35.05877 139.97190 7579 ft 203 kts 262°
2026-05-06 12:37 35.05868 139.95501 7343 ft 203 kts 274°
2026-05-06 12:37 35.06198 139.93818 7057 ft 206 kts 290°
2026-05-06 12:37 35.06967 139.92365 6836 ft 208 kts 304°
2026-05-06 12:38 35.07882 139.91079 6599 ft 208 kts 313°
2026-05-06 12:38 35.09197 139.90300 6289 ft 215 kts 346°
2026-05-06 12:38 35.10684 139.90080 6043 ft 215 kts 353°
2026-05-06 12:38 35.12184 139.90100 5729 ft 217 kts
2026-05-06 12:39 35.13667 139.90134 5611 ft 207 kts 357°
2026-05-06 12:39 35.15054 139.90329 5473 ft 200 kts 19°
2026-05-06 12:39 35.16289 139.91058 5257 ft 196 kts 29°
2026-05-06 12:39 35.17458 139.91889 5031 ft 193 kts 30°
2026-05-06 12:40 35.18615 139.92725 4977 ft 194 kts 30°
2026-05-06 12:40 35.19771 139.93555 4972 ft 195 kts 30°
2026-05-06 12:40 35.20918 139.94374 4974 ft 195 kts 30°
2026-05-06 12:40 35.22088 139.95207 4976 ft 195 kts 30°
2026-05-06 12:41 35.23255 139.96040 4972 ft 194 kts 30°
2026-05-06 12:41 35.24430 139.96867 4970 ft 194 kts 27°
2026-05-06 12:41 35.25663 139.97521 4953 ft 194 kts 32°
2026-05-06 12:41 35.26463 139.98798 4978 ft 189 kts 68°
2026-05-06 12:42 35.27177 140.00150 4978 ft 192 kts 42°
2026-05-06 12:42 35.28352 140.00862 4984 ft 188 kts 13°
2026-05-06 12:42 35.29640 140.01083 4973 ft 187 kts 357°
2026-05-06 12:42 35.30911 140.00942 4973 ft 186 kts 346°
2026-05-06 12:43 35.32153 140.00529 4974 ft 184 kts 334°
2026-05-06 12:43 35.33295 139.99851 4971 ft 182 kts 321°
2026-05-06 12:43 35.34257 139.98874 4974 ft 178 kts 310°
2026-05-06 12:43 35.35082 139.97765 4974 ft 177 kts 303°
2026-05-06 12:44 35.35831 139.96594 4798 ft 174 kts 302°
2026-05-06 12:44 35.36560 139.95407 4460 ft 175 kts 302°
2026-05-06 12:44 35.37250 139.94177 4161 ft 175 kts 300°
2026-05-06 12:44 35.37891 139.92913 3986 ft 175 kts 296°
2026-05-06 12:45 35.38437 139.91607 3969 ft 173 kts 290°
2026-05-06 12:45 35.38929 139.90269 3966 ft 172 kts 288°
2026-05-06 12:45 35.40381 139.87889 3624 ft 191 kts 325°
2026-05-06 12:46 35.41574 139.87140 3346 ft 192 kts 333°
2026-05-06 12:46 35.42814 139.86590 3065 ft 191 kts 338°
2026-05-06 12:46 35.44103 139.85951 2364 ft 209 kts 332°
2026-05-06 12:46 35.45440 139.85155 1623 ft 224 kts 328°
2026-05-06 12:47 35.46824 139.84200 1061 ft 229 kts 327°
2026-05-06 12:47 35.48146 139.83188 614 ft 219 kts 325°
2026-05-06 12:47 35.49341 139.82248 562 ft 188 kts 324°
2026-05-06 12:47 35.50412 139.81392 652 ft 184 kts 321°
2026-05-06 12:48 35.51367 139.80462 543 ft 166 kts 315°
2026-05-06 12:48 35.52214 139.79615 396 ft 150 kts 323°
2026-05-06 12:48 35.53081 139.78980 192 ft 143 kts 327°
2026-05-06 12:48 35.53917 139.78391 42 ft 134 kts 325°
2026-05-06 12:49 35.54607 139.77893 27 ft 82 kts 329°
2026-05-06 12:49 35.54998 139.77615 28 ft 60 kts 330°
2026-05-06 12:49 35.55357 139.77399 28 ft 55 kts 344°
2026-05-06 12:49 35.55492 139.77370 27 ft 0 kts 355°
2026-05-06 12:50 35.55507 139.77369 27 ft 10 kts 358°
2026-05-06 12:50 35.55557 139.77386 27 ft 0 kts 35°
2026-05-06 12:50 35.55568 139.77425 28 ft 10 kts 94°
2026-05-06 12:51 35.55530 139.77489 29 ft 10 kts 142°
2026-05-06 12:51 35.55465 139.77537 29 ft 12 kts 152°
2026-05-06 12:51 35.55383 139.77591 28 ft 14 kts 150°
2026-05-06 12:51 35.55293 139.77660 28 ft 16 kts 149°
2026-05-06 12:52 35.55193 139.77731 28 ft 17 kts 151°
2026-05-06 12:52 35.55084 139.77804 28 ft 18 kts 151°
2026-05-06 12:52 35.54970 139.77885 28 ft 19 kts 150°
2026-05-06 12:52 35.54851 139.77969 28 ft 20 kts 149°
2026-05-06 12:53 35.54731 139.78060 28 ft 20 kts 149°
2026-05-06 12:53 35.54652 139.78117 28 ft 0 kts 150°
2026-05-06 12:54 35.54632 139.78131 28 ft 13 kts 148°
2026-05-06 12:54 35.54599 139.78217 29 ft 12 kts 86°
2026-05-06 12:54 35.54567 139.78296 30 ft 10 kts 138°
2026-05-06 12:54 35.54501 139.78349 30 ft 12 kts 150°
2026-05-06 12:55 35.54465 139.78400 29 ft 5 kts 84°
2026-05-06 12:55 35.54482 139.78457 30 ft 8 kts 64°
2026-05-06 12:55 35.54483 139.78462 30 ft 0 kts 64°